Regional Weather Roundup
Issued by NWS

Current Version | Previous Version | Text Only | Print | Product List | Glossary On
Versions: 1 2 3 4 5 6 7 8 9 10 11 12 13 14 15 16 17 18 19 20 21 22 23 24 25 26 27 28 29 30 31 32 33 34 35 36 37 38 39 40 41 42 43 44 45 46 47 48 49 50
000
ASUS44 KOUN 200010
RWROK

WEATHER ROUNDUP FOR OKLAHOMA
NATIONAL WEATHER SERVICE NORMAN OK
700 PM CDT SAT APR 19 2014

NOTE: "FAIR" INDICATES FEW OR NO CLOUDS BELOW 12,000 FEET WITH NO
      SIGNIFICANT WEATHER AND/OR OBSTRUCTIONS TO VISIBILITY.

OKZ001>007-009>012-014-015-017-200100-
NORTHWEST OKLAHOMA AND THE PANHANDLE

CITY           SKY/WX    TMP DP  RH WIND       PRES   REMARKS
GAGE           PTSUNNY   77  46  33 S21G29    29.99R
6HR MIN TEMP:  71; 6HR MAX TEMP:  82;

ENID/VANCE AFB PTSUNNY   75  53  46 S14G22    30.03S
ENID/WOODRING  PTSUNNY   77  50  38 S18       30.03S
$$

OKZ016-021>023-033>039-044-045-200100-
SOUTHWEST OKLAHOMA

CITY           SKY/WX    TMP DP  RH WIND       PRES   REMARKS
LAWTON/REGL    PTSUNNY   76  51  41 SE12      30.05R
6HR MIN TEMP:  75; 6HR MAX TEMP:  80;

LAWTON/FT SILL PTSUNNY   76  52  43 S16       30.04R
FREDERICK      PTSUNNY   77  51  40 S17       30.02R
CLINTON        PTSUNNY   75  50  41 S18G26    30.06R
HOBART         MOSUNNY   76  50  40 S17G24    30.04R
ALTUS AFB      PTSUNNY   77  51  39 S18       30.03S
$$

OKZ018>020-024>031-200100-
CENTRAL OKLAHOMA

CITY           SKY/WX    TMP DP  RH WIND       PRES   REMARKS
OKLAHOMA CITY  CLOUDY    74  49  41 S17       30.06R
6HR MIN TEMP:  74; 6HR MAX TEMP:  80;

OKC/WILEY POST CLOUDY    75  47  36 S16       30.06R
OKC/TINKER AFB PTSUNNY   73  50  43 S13       30.07R
STILLWATER     CLOUDY    74  48  39 S10       30.05S
GUTHRIE        CLOUDY    76  49  38 S10       30.05S
$$

OKZ008-013-054>072-200100-
NORTHEAST OKLAHOMA

CITY           SKY/WX    TMP DP  RH WIND       PRES   REMARKS
TULSA          CLOUDY    75  48  38 S12       30.06S
6HR MIN TEMP:  74; 6HR MAX TEMP:  79;

TULSA/JONES    PTSUNNY   77  45  32 S10       30.06F
PONCA CITY     CLOUDY    77  46  33 S13G22    30.03S
BARTLESVILLE   PTSUNNY   74  47  38 SE13G20   30.06F
MUSKOGEE       MOSUNNY   74  49  41 S7        30.09F
$$

OKZ032-040>043-046>053-073>077-200100-
SOUTH CENTRAL/SOUTHEAST OKLAHOMA

CITY           SKY/WX    TMP DP  RH WIND       PRES   REMARKS
ARDMORE/DWNTWN   N/A     72  50  46 S3        30.08R
MCALESTER      PTSUNNY   74  46  36 S5        30.09F
$$




USA.gov is the U.S. government's official web portal to all federal, state and local government web resources and services.